{"data":{"norad_id":61616,"epoch":"2026-05-25T04:20:40.255008Z","epoch_age_seconds":56432,"freshness":"FRESH","line1":"1 61616U 24189C   26145.18102147  .00002322  00000+0  18629-3 0  9993","line2":"2 61616  97.5222 166.1540 0002924  76.5899 283.5651 15.01021773 86992","mean_motion":15.01021773,"eccentricity":0.0002924,"inclination_deg":97.5222,"raan_deg":166.154,"arg_perigee_deg":76.5899,"mean_anomaly_deg":283.5651,"bstar":0.00018629,"rev_number":8699,"period_min":95.934651042534,"perigee_km":561.71444100019,"apogee_km":565.77405315348,"semimajor_km":6941.8812470768,"source":"CELESTRAK","updated_at":"2026-05-25T13:38:02.453590Z"}}